GW4137 Weather Reports


Display with metric or nautical units.
time (UTC)temp
F
wind
direction
speed
MPH
gust
MPH
rain 1hr
in
rain 24hr
in
rain mn
in
humidity
%
barometer
mb
20260906073101 56 5 3.0 13.0 0.01 0.10 0.01 87 1019.7
20260906071600 56 23 9.0 15.0 0.01 0.10 0.01 87 1019.6
20260906070114 56 352 12.0 19.0 0.00 0.09 0.00 87 1019.6
20260906064552 56 352 13.0 18.0 0.00 0.09 0.00 86 1019.8
20260906063054 56 331 8.0 15.0 0.01 0.09 0.00 86 1020.3
20260906061613 56 334 12.0 22.0 0.01 0.09 0.00 86 1020.2
20260906060104 56 309 7.0 14.0 0.01 0.09 0.00 86 1020.6
20260906054559 56 360 11.0 15.0 0.01 0.09 0.09 86 1020.2
20260906053057 56 355 11.0 16.0 0.00 0.08 0.08 87 1020.0
20260906051552 55 340 8.0 13.0 0.01 0.08 0.08 88 1019.9
20260906050115 55 337 6.0 11.0 0.01 0.08 0.08 88 1020.0
20260906044556 56 323 6.0 13.0 0.02 0.08 0.08 86 1020.3
20260906043106 57 350 6.0 15.0 0.02 0.08 0.08 85 1020.3
20260906041551 56 352 12.0 19.0 0.02 0.07 0.07 86 1019.3
20260906040115 56 343 13.0 20.0 0.03 0.07 0.07 86 1018.9
20260906034556 56 350 11.0 17.0 0.02 0.06 0.06 85 1019.1
20260906033053 57 340 7.0 13.0 0.02 0.06 0.06 82 1019.6
20260906031603 60 259 3.0 9.0 0.01 0.05 0.05 73 1020.1
20260906024552 60 0 1.0 7.0 0.00 0.04 0.04 70 1018.3
20260906023122 61 13 9.0 13.0 0.00 0.04 0.04 68 1017.8
20260906021556 61 352 6.0 12.0 0.00 0.04 0.04 67 1017.9
20260906020053 62 352 5.0 12.0 0.00 0.04 0.04 67 1017.9
20260906014606 62 352 7.0 12.0 0.00 0.04 0.04 66 1017.8
20260906013058 63 350 6.0 14.0 0.00 0.04 0.04 65 1018.0
20260906011556 63 360 8.0 15.0 0.00 0.04 0.04 64 1018.0
20260906010107 64 5 10.0 15.0 0.00 0.04 0.04 62 1018.0
20260906004613 65 347 8.0 15.0 0.00 0.04 0.04 59 1018.0
20260906003113 66 352 8.0 15.0 0.00 0.04 0.04 57 1018.1
20260906001604 68 313 10.0 17.0 0.00 0.04 0.04 54 1018.2
20260906000111 69 331 11.0 19.0 0.00 0.04 0.04 52 1018.1
20260905234602 69 322 12.0 18.0 0.00 0.04 0.04 52 1018.3
20260905233109 70 317 8.0 16.0 0.00 0.04 0.04 50 1018.4
20260905231602 71 315 7.0 13.0 0.00 0.04 0.04 49 1018.4
20260905230057 71 290 6.0 12.0 0.00 0.04 0.04 45 1018.3
20260905224604 72 327 5.0 14.0 0.00 0.04 0.04 43 1018.3
20260905223052 72 291 4.0 10.0 0.00 0.04 0.04 44 1018.3
20260905221558 71 323 3.0 9.0 0.00 0.04 0.04 44 1018.4
20260905220059 72 0 0.0 8.0 0.00 0.04 0.04 44 1018.5
20260905214553 72 325 1.0 8.0 0.00 0.04 0.04 44 1018.6
20260905213107 71 17 0.0 8.0 0.00 0.04 0.04 42 1018.6
20260905211609 71 5 2.0 7.0 0.00 0.04 0.04 43 1018.6
20260905210104 70 308 4.0 9.0 0.00 0.04 0.04 44 1018.7
20260905204600 70 273 3.0 8.0 0.00 0.04 0.04 45 1018.8
20260905203100 70 288 3.0 10.0 0.00 0.04 0.04 45 1018.9
20260905201554 69 0 2.0 9.0 0.00 0.04 0.04 45 1019.0
20260905200058 69 285 1.0 6.0 0.00 0.04 0.04 45 1019.0
20260905194604 68 285 3.0 9.0 0.00 0.04 0.04 47 1019.1
20260905193057 68 0 2.0 8.0 0.00 0.04 0.04 47 1019.1
20260905191552 68 0 3.0 9.0 0.00 0.04 0.04 48 1019.2
20260905184603 67 300 6.0 10.0 0.00 0.04 0.04 54 1019.4
20260905183125 66 298 4.0 10.0 0.00 0.04 0.04 55 1019.5
20260905181557 67 308 2.0 11.0 0.00 0.04 0.04 56 1019.5
20260905180057 66 313 4.0 8.0 0.00 0.04 0.04 57 1019.8
20260905174555 64 340 5.0 10.0 0.00 0.04 0.04 60 1019.8
20260905173101 63 332 4.0 10.0 0.00 0.04 0.04 68 1019.8
20260905171605 61 339 3.0 6.0 0.01 0.04 0.04 70 1020.0
20260905170057 60 344 2.0 9.0 0.01 0.04 0.04 73 1019.9
20260905164602 59 328 1.0 5.0 0.01 0.04 0.04 77 1020.1
20260905163054 58 328 0.0 4.0 0.01 0.04 0.04 84 1019.9
20260905161557 57 0 3.0 6.0 0.00 0.03 0.03 88 1019.8
20260905160053 56 331 3.0 5.0 0.01 0.03 0.03 89 1019.8
20260905154601 55 0 0.0 0.0 0.01 0.03 0.03 90 1019.7
20260905153059 55 0 0.0 0.0 0.01 0.03 0.03 91 1019.8
20260905151559 55 0 0.0 4.0 0.01 0.03 0.03 91 1019.6
20260905150104 54 332 2.0 5.0 0.00 0.02 0.02 92 1019.2
20260905144553 53 0 0.0 0.0 0.01 0.02 0.02 92 1019.3
20260905143101 52 332 2.0 9.0 0.01 0.02 0.02 91 1019.2
20260905141558 51 336 4.0 10.0 0.02 0.02 0.02 92 1018.8
20260905140104 51 360 6.0 10.0 0.02 0.02 0.02 91 1018.6
20260905134553 51 293 3.0 8.0 0.01 0.01 0.01 90 1019.3
20260905133100 51 291 4.0 11.0 0.01 0.01 0.01 88 1019.7
20260905131610 52 281 7.0 11.0 0.00 0.00 0.00 86 1019.9
20260905130105 52 281 7.0 12.0 0.00 0.00 0.00 85 1019.4
20260905124558 52 284 0.0 6.0 0.00 0.00 0.00 83 1018.6
20260905123104 52 0 0.0 4.0 0.00 0.00 0.00 81 1018.8
20260905121553 53 283 2.0 7.0 0.00 0.00 0.00 80 1017.8
20260905120106 53 273 3.0 8.0 0.00 0.00 0.00 78 1018.7
20260905114601 53 273 4.0 9.0 0.00 0.00 0.00 77 1018.6
20260905113054 53 280 3.0 10.0 0.00 0.00 0.00 77 1018.1
20260905111612 53 294 6.0 10.0 0.00 0.00 0.00 76 1017.9
20260905110058 53 290 7.0 12.0 0.00 0.00 0.00 77 1017.8
20260905104555 53 284 6.0 11.0 0.00 0.00 0.00 78 1017.7
20260905103054 53 281 6.0 11.0 0.00 0.00 0.00 77 1017.6
20260905101605 53 290 6.0 11.0 0.00 0.00 0.00 77 1017.3
20260905100053 52 283 5.0 13.0 0.00 0.00 0.00 78 1017.5
20260905094553 51 288 3.0 5.0 0.00 0.00 0.00 78 1017.3
20260905093101 52 286 4.0 10.0 0.00 0.00 0.00 77 1017.2
20260905091554 52 283 4.0 9.0 0.00 0.00 0.00 75 1017.4
20260905090059 52 311 2.0 5.0 0.00 0.00 0.00 74 1017.0
20260905084600 51 317 2.0 5.0 0.00 0.00 0.00 77 1016.3
20260905083058 52 0 0.0 2.0 0.00 0.00 0.00 75 1016.5
20260905081603 52 0 0.0 0.0 0.00 0.00 0.00 76 1016.1
20260905080054 52 317 1.0 6.0 0.00 0.00 0.00 76 1015.9
20260905074558 52 0 0.0 0.0 0.00 0.00 0.00 73 1016.7